Бир

Индия     32°03′35″N   76°44′42″E
темп.,
°C
ветер,
м/с
пор.,
м/с
влажн.,
%
обл.,
%
осадки,
мм/ч
давл.,
гПа
погр.,
м
8 мая, сб
сб823:30+15св32607 0.8 101426
02:30+14св32545 0.0 101430
05:30+14св32539 0.0 101431
08:30+20ююз21404 0.0 1014916
11:30+23юз323536 0.2 10132229
14:30+22с233879 0.6 10122250
17:30+21с433753 1.9 1011580
20:30+17св434845 0.3 101339
9 мая, вс
вс923:30+16св434416 0.3 101236
02:30+16св43445 0.0 101139
05:30+15св424564 0.0 101234
08:30+22ю223410 0.0 10121166
11:30+25юз323267 0.5 10122559
14:30+20ссв664596 1.8 1012782
17:30+21всв2341100 2.3 1009430
20:30+17св324953 0.0 101235
10 мая, пн
пн1023:30+17св434192 0.0 101044
02:30+16св433854 0.0 100941
05:30+16св433842 0.0 101037
08:30+23ююз212755 0.0 10091082
11:30+26юз322634 0.1 10092500
14:30+26з332772 0.4 10063014
17:30+22св554280 1.2 1007455
20:30+18св544653 0.0 100857
11 мая, вт
вт1123:30+17св533998 0.0 100847
02:30+17св433998 0.0 100740
05:30+17ссв3242100 0.0 100827
08:30+24ююз213062 0.0 1008929
11:30+27ююз322541 0.1 10062897
14:30+26сз352799 0.9 10042733
17:30+20св454599 2.8 1005248
20:30+16всв5559100 1.5 1007107
12 мая, ср
ср1223:30+17св4446100 1.5 100650
02:30+17ссв324296 0.0 100732
05:30+16св4345100 0.0 100641
08:30+22ююз2134100 0.1 1007596
11:30+21юз1142100 0.3 1008666
14:30+19зсз2350100 0.3 1008847
17:30+17в2364100 0.7 1007391
20:30+16св3267100 0.0 100758